www.pogodaiklimat.ru

Погода и климат >> Архив погоды >> Индия >> Джаркханд >> Ранчи


ПОГОДА в Ранчи

  • Прогноз погоды в Ранчи
  • Монитор погоды в Ранчи

АРХИВ ПОГОДЫ в Ранчи

Время (UTC), дата Ветер
(напр.,м/с)
 
Видим.   Явления Облачность Т
(С)
Тd
(С)
f
(%)
Тe
(С)
Тes
(С)
Комфортность P
(гПа)
Po
(гПа)
Тmin
(С)
Tmax
(С)
R
(мм)
R24
(мм)
S
(см)
12 18.05 Ю 2 4000 м мгла 8/5 600 м
[Sc diur, vesp Ac trans]
+37.0 +17.3 31 +40 +40 очень
душно
1000.2 931.8 +39.0
15 18.05 штиль 0 4000 м мгла {гроза} 6/4 600 м
[Sc Ac trans]
+32.4 +17.3 41 +36 +36 очень
душно
1003.1 933.6
18 18.05 штиль 0 4000 м мгла {гроза} 4/4 600 м
[Sc Ac trans]
+30.0 +19.7 54 +36 +36 очень
душно
1004.3 934.1
21 18.05 С 2 4000 м мгла 3/0
[Ac trans]
+27.6 +18.2 57 +32 +32 очень
душно
1004.3 933.6
00 19.05 штиль 0 4000 м мгла 4/4 600 м
[Sc]
+27.0 +16.4 52 +30 +31 душно 1005.0 934.1
03 19.05 СВ 2 4000 м мгла 6/4 600 м
[Sc Ac trans]
+37.8 +14.1 24 +38 +43 очень
жарко
1006.4 936.5 +25.2
06 19.05 З 2 4000 м мгла 4/1 600 м
[Sc Ac trans]
+36.4 +12.9 24 +36 +52 опасность
солнечного
удара
1004.7 936.0
09 19.05 З 2 4000 м 8/8 600 м
[Sc diur, vesp]
+38.4 +12.4 21 +38 +41 очень
жарко
1002.1 934.0
12 19.05 Ю 2 4000 м 8/8 600 м
[Sc diur, vesp]
+36.6 +13.3 25 +37 +37 очень
жарко
1002.1 933.5 +39.0
15 19.05 штиль 0 4000 м мгла 4/4 600 м
[Sc]
+32.4 +16.1 38 +35 +35 душно 1005.1 935.5
18 19.05 В 1 4000 м мгла ясно +28.6 +18.4 54 +33 +33 очень
душно
1006.9 936.3
21 19.05 штиль 0 4000 м мгла 3/3 600 м
[Sc]
+28.0 +18.7 57 +33 +33 очень
душно
1006.2 935.4
00 20.05 штиль 0 4000 м мгла 3/3 600 м
[Sc]
+15.8 +16.8 100 +16 +16 1007.0 935.7
03 20.05 СВ 1 4000 м мгла 4/4 600 м
[Sc]
+34.0 +15.5 33 +36 +44 душно 1007.0 937.5 +25.0
06 20.05 штиль 0 4000 м ясно +37.8 +15.1 26 +39 +69 опасность
солнечного
удара
1005.4 936.9
09 20.05 СВ 2 4000 м 6/6 600 м
[Sc diur, vesp]
+37.8 +22.4 41 +46 +52 опасность
перегрева
1003.5 934.2
12 20.05 штиль 0 4000 м 5/5 600 м
[Sc diur, vesp]
+36.8 +14.0 26 +38 +38 очень
душно
1001.7 933.1 +39.4
15 20.05 штиль 0 4000 м мгла 6/4 600 м
[Sc Ac trans]
+32.4 +17.7 42 +37 +37 очень
душно
1004.8 935.2
18 20.05 штиль 0 4000 м мгла 4/4 600 м
[Sc]
+30.8 +18.2 47 +35 +35 очень
душно
1005.7 935.6
21 20.05 штиль 0 4000 м мгла 4/4 600 м
[Sc]
+30.2 +18.2 49 +35 +35 очень
душно
1004.8 934.8
00 21.05 штиль 0 4000 м мгла 4/0
[Ac trans]
+26.2 +18.3 62 +31 +31 очень
душно
1005.4 934.5
03 21.05 С 1 4000 м мгла ясно +33.4 +14.2 31 +35 +47 душно 1005.6 936.2 +25.2
06 21.05 С 3 4000 м мгла ясно +38.4 +10.3 18 +37 +57 опасность
солнечного
удара
1004.0 935.7
09 21.05 4000 м мгла 4/0
[]
+40.6 +12.2 19 1001.3 933.6
12 21.05 СЗ 1 4000 м мгла ясно +37.6 +22.0 41 +46 +47 опасность
перегрева
1000.6 932.4 +40.6
15 21.05 штиль 0 4000 м мгла ясно +32.4 +16.1 38 +35 +35 душно 1003.2 933.7
18 21.05 штиль 0 4000 м мгла ясно +29.6 +15.9 44 +33 +33 душно 1004.7 934.5
21 21.05 штиль 0 4000 м мгла ясно +28.4 +15.5 45 +31 +31 душно 1003.6 933.2
00 22.05 ЮЗ 2 4000 м мгла ясно +28.0 +19.0 58 +33 +33 очень
душно
1004.3 933.6
03 22.05 Ю 1 4000 м мгла ясно +32.4 +20.8 50 +39 +52 опасность
солнечного
удара
1003.8 934.3 +27.4
06 22.05 З 1 4000 м мгла ясно +38.8 +15.8 26 +40 +66 опасность
солнечного
удара
1002.4 934.3
09 22.05 ЮЗ 1 4000 м мгла 6/6 600 м
[Sc diur, vesp]
+40.4 +14.2 21 +41 +47 опасность
перегрева
999.4 931.9
12 22.05 Ю 3 4000 м гроза без осадков 9/6 540 м
[Cb cap Ac trans]
+31.6 +17.0 42 +35 +35 очень
душно
1000.5 931.0 +40.8 0.0
15 22.05 Ю 2 4000 м мгла {гроза} 4/0 600 м
[Ac trans]
+29.8 +17.3 47 +34 +34 очень
душно
1002.5 932.5 690
18 22.05 Ю 3 4000 м мгла {гроза} 8/4 540 м
[Sc Ac trans]
+28.2 +17.9 54 +33 +33 очень
душно
1003.9 933.5 690
21 22.05 З 1 4000 м мгла 8/4 540 м
[Sc Ac trans]
+27.6 +17.8 55 +32 +32 очень
душно
1002.6 932.1 690
00 23.05 штиль 0 4000 м мгла 5/5 540 м
[Sc]
+26.0 +18.4 63 +31 +31 очень
душно
1004.4 933.4 0.0
03 23.05 Ю 2 4000 м мгла 5/3 600 м
[Sc Ac trans]
+29.0 +18.8 54 +34 +40 очень
душно
1005.5 935.0 +24.0
06 23.05 Ю 3 4000 м мгла ясно +35.4 +19.3 39 +41 +61 опасность
перегрева
1002.9 934.1
09 23.05 Ю 2 4000 м 4/4 600 м
[Sc]
+38.6 +18.7 31 +42 +51 опасность
перегрева
999.1 931.1
12 23.05 Ю 2 4000 м гроза, ливневой дождь 8/5 600 м
[Cb cap Ac trans]
+32.8 +18.5 43 +38 +38 очень
душно
1000.5 931.2 +39.5 0.9
15 23.05 штиль 0 4000 м гроза, ливневой дождь 6/4 600 м
[Sc Ac trans]
+26.4 +22.7 80 +35 +35 очень
душно
1002.3 931.5 2
18 23.05 ЮВ 1 4000 м мгла 6/4 600 м
[Sc Ac trans]
+26.0 +21.6 77 +33 +33 очень
душно
1003.6 932.6 2
21 23.05 З 1 4000 м мгла ясно +25.6 +21.5 78 +33 +33 очень
душно
1002.5 931.5 2
00 24.05 Ю 2 4000 м мгла ясно +26.2 +21.6 76 +34 +34 очень
душно
1003.0 932.2 2
03 24.05 ЮЗ 3 4000 м мгла ясно +30.4 +22.8 64 +40 +50 очень
душно
1003.6 933.6 +25.5 2
06 24.05 Ю 3 4000 м ясно +37.0 +21.4 41 +45 +63 опасность
перегрева
1001.0 932.6
09 24.05 С 2 4000 м 8/8 600 м
[Cb calv]
+39.4 +18.7 30 +43 +46 опасность
перегрева
997.9 930.3
12 24.05 В 2 4000 м 8/8 600 м
[Cb calv]
+37.6 +21.1 39 +45 +45 опасность
перегрева
997.7 929.7 +40.6
15 24.05 Ю 2 4000 м мгла 6/4 600 м
[Sc Ac trans]
+31.6 +21.6 55 +40 +40 очень
душно
1000.5 931.0
18 24.05 штиль 0 4000 м мгла 6/4 600 м
[Sc Ac trans]
+29.4 +21.6 63 +37 +37 очень
душно
1001.7 931.7
21 24.05 штиль 0 2000 м мгла 6/4 600 м
[Sc Ac trans]
+27.4 +21.9 72 +35 +35 очень
душно
1001.5 931.0
00 25.05 штиль 0 2000 м мгла 5/3 600 м
[Sc Ac trans]
+27.0 +22.7 77 +36 +36 очень
душно
1000.9 930.3
03 25.05 штиль 0 4000 м мгла ясно +33.0 +21.6 51 +41 +56 опасность
перегрева
1001.2 931.9 +26.5
09 25.05 Ю 2 4000 м мгла 8/8 600 м
[Cb calv]
+35.8 +18.7 37 +40 +43 очень
душно
999.1 930.6

 

Местоположение метеостанции Ранчи (Джаркханд, Индия): широта 23.32 долгота 85.32 высота над уровнем моря 652 м.

В архиве по умолчанию представлена погода в Ранчи за последнюю неделю. Архивные данные за месяц целиком и за предыдущие месяцы, начиная с января 2011 года, Вы можете получить, выбрав интересующий диапазон дат из раскрывающегося списка и нажав кнопку "Ввод!".


*Определитесь, кто Вы:
робот инопланетянин человек

Внимание! Время в таблицах - всемирное. Для получения местного времени необходимо прибавить поправку, которая равна 5.5 ч.

Смотрите также архив погоды в соседних городах и на ближайших метеорологических станциях:

Погода в Чайбасе (Джаркханд, Индия) (100 км)
Погода в Джамшедпуре (Джаркханд, Индия) (104 км)
Погода в Пурулии (Западная Бенгалия, Индия) (112 км)
Погода в Далтонгандже (Джаркханд, Индия) (151 км)
Погода в Гае (Бихар, Индия) (163 км)
Погода в Асансоле (Западная Бенгалия, Индия) (174 км)
Погода в Банкуре (Западная Бенгалия, Индия) (177 км)
Погода в Сундаргархе (Орисса, Индия) (188 км)
Погода в Кендуджхаре (Орисса, Индия) (190 км)
Погода в Джхарсугуде (Орисса, Индия) (201 км)

Пояснения к столбцам:

Ветер - указаны скорость ветра в м/с - средняя за 10 мин, порывы в срок и между сроками (в фигурных скобках) и направление, откуда дует ветер: С - северный, СВ - северо-восточный, В - восточный, ЮВ - юго-восточный, Ю - южный, ЮЗ - юго-западный, З - западный, СЗ - северо-западный.
Видимость - горизонтальная дальность видимости в метрах или километрах. При видимости от 1 до 10 км при отсутствии осадков обычно наблюдается дымка, при ухудшении видимости до 1 км и менее - туман. В сухую погоду видимость может ухудшаться дымом, пылью или мглою.
Явления - указаны атмосферные явления, наблюдавшиеся в срок или в последний час перед сроком; фигурными скобками обозначены явления, наблюдавшиеся между сроками (за 1-3 часа до срока); квадратными скобками обозначены град или гололедные отложения с указанием их диаметра в мм.
Облачность - указаны через наклонную черту общая и нижняя облачность в баллах и высота нижней границы облаков в метрах; квадратными скобками обозначены формы облаков: Ci - перистые, Cs - перисто-слоистые, Cc - перисто-кучевые, Ac - высококучевые, As - высокослоистые, Sc - слоисто-кучевые, Ns - слоисто-дождевые, Cu - кучевые, Cb - кучево-дождевые. Подробнее классификацию облаков см. в Атласе облаков (PDF).
T - Температура воздуха - температура, измеренная на высоте 2 м над землей.
Td - Температура точки росы - температура, при понижении до которой содержащийся в воздухе водяной пар достигнет насыщения.
f - Относительная влажность воздуха - влажноcть воздуха, измеренная на высоте 2 м над землей.
Te - Эффективная температура - температура, которую ощущает одетый по сезону человек в тени. Характеристика душности погоды. При расчете учитывается влияние влажности воздуха и скорости ветра на теплоощущения человека.
Tes - Эффективная температура на солнце - температура, которую ощущает человек, с поправкой на солнечный нагрев. Характеристика знойности погоды. Зависит от высоты солнца над горизонтом, облачности и скорости ветра. Ночью, в пасмурную погоду, а также при ветре 12 м/с и более поправка равна нулю.
P - Атмосферное давление - приведенное к уровню моря атмосферное давление.
Po - Атмосферное давление - измеренное на уровне метеостанции атмосферное давление.
Tmin - Минимальная температура - минимум температуры воздуха на высоте 2 м над землей.
Tmax - Максимальная температура - максимум температуры воздуха на высоте 2 м над землей.
R - Количество осадков - Количество выпавших осадков за период времени, мм. При наведении курсора мыши на число - период времени, за который выпало указанное количество осадков.
R24 - Количество осадков - Количество выпавших осадков за 24 часа, мм.
S - Снежный покров - Высота снежного покрова, см. При наведении курсора мыши на число - состояние снежного покрова и степень покрытия местности в баллах.